| time (UTC) | temp F | wind direction | speed MPH | gust MPH | rain 1hr in | rain 24hr in | rain mn in | humidity % | barometer mb |
| 20260831172525 | 88 | 155 | 0.0 | 0.0 | 0.00 | 0.00 | 0.00 | 55 | 1016.5 |
| 20260831172333 | 89 | 154 | 0.0 | 0.0 | 0.00 | 0.00 | 0.00 | 55 | 1019.5 |
| 20260831172009 | 88 | 127 | 0.0 | 0.0 | 0.00 | 0.00 | 0.00 | 54 | 1016.6 |
| 20260831171829 | 89 | 129 | 0.0 | 0.0 | 0.00 | 0.00 | 0.00 | 54 | 1019.6 |
| 20260831171539 | 88 | 174 | 0.0 | 0.0 | 0.00 | 0.00 | 0.00 | 57 | 1016.5 |
| 20260831171324 | 89 | 152 | 0.0 | 0.0 | 0.00 | 0.00 | 0.00 | 56 | 1019.5 |
| 20260831171003 | 88 | 202 | 0.0 | 0.0 | 0.00 | 0.00 | 0.00 | 57 | 1016.6 |
| 20260831170821 | 88 | 153 | 0.0 | 0.0 | 0.00 | 0.00 | 0.00 | 57 | 1019.6 |
| 20260831170555 | 88 | 174 | 0.0 | 0.0 | 0.00 | 0.00 | 0.00 | 56 | 1016.6 |
| 20260831170318 | 88 | 131 | 0.0 | 0.0 | 0.00 | 0.00 | 0.00 | 57 | 1019.6 |
| 20260831170046 | 88 | 142 | 0.0 | 0.0 | 0.00 | 0.00 | 0.00 | 57 | 1016.6 |
| 20260831165815 | 88 | 168 | 0.0 | 0.0 | 0.00 | 0.00 | 0.00 | 58 | 1019.6 |
| 20260831165540 | 87 | 187 | 0.0 | 0.0 | 0.00 | 0.00 | 0.00 | 59 | 1016.6 |
| 20260831165332 | 88 | 193 | 0.0 | 0.0 | 0.00 | 0.00 | 0.00 | 59 | 1019.6 |
| 20260831165028 | 87 | 173 | 0.0 | 0.0 | 0.00 | 0.00 | 0.00 | 59 | 1016.7 |
| 20260831164831 | 87 | 189 | 0.0 | 0.0 | 0.00 | 0.00 | 0.00 | 59 | 1019.6 |
| 20260831164521 | 87 | 166 | 0.0 | 0.0 | 0.00 | 0.00 | 0.00 | 59 | 1016.7 |
| 20260831164330 | 87 | 168 | 0.0 | 0.0 | 0.00 | 0.00 | 0.00 | 59 | 1019.8 |
| 20260831164002 | 86 | 161 | 0.0 | 0.0 | 0.00 | 0.00 | 0.00 | 60 | 1016.8 |
| 20260831163827 | 87 | 161 | 0.0 | 0.0 | 0.00 | 0.00 | 0.00 | 60 | 1019.8 |
| 20260831163555 | 86 | 224 | 0.0 | 0.0 | 0.00 | 0.00 | 0.00 | 62 | 1016.8 |
| 20260831163325 | 87 | 176 | 0.0 | 0.0 | 0.00 | 0.00 | 0.00 | 63 | 1019.8 |
| 20260831163047 | 86 | 184 | 0.0 | 0.0 | 0.00 | 0.00 | 0.00 | 63 | 1016.7 |
| 20260831162822 | 87 | 213 | 0.0 | 0.0 | 0.00 | 0.00 | 0.00 | 63 | 1019.7 |
| 20260831162537 | 86 | 184 | 0.0 | 0.0 | 0.00 | 0.00 | 0.00 | 64 | 1016.7 |
| 20260831162321 | 86 | 211 | 0.0 | 0.0 | 0.00 | 0.00 | 0.00 | 64 | 1019.7 |
| 20260831162030 | 86 | 165 | 0.0 | 0.0 | 0.00 | 0.00 | 0.00 | 64 | 1016.8 |
| 20260831161839 | 86 | 209 | 0.0 | 0.0 | 0.00 | 0.00 | 0.00 | 64 | 1019.9 |
| 20260831161554 | 85 | 187 | 0.0 | 0.0 | 0.00 | 0.00 | 0.00 | 64 | 1016.8 |
| 20260831161315 | 86 | 156 | 0.0 | 0.0 | 0.00 | 0.00 | 0.00 | 64 | 1019.7 |
| 20260831161048 | 85 | 133 | 0.0 | 0.0 | 0.00 | 0.00 | 0.00 | 66 | 1016.7 |
| 20260831160853 | 85 | 201 | 0.0 | 0.0 | 0.00 | 0.00 | 0.00 | 66 | 1019.8 |
| 20260831160508 | 85 | 169 | 0.0 | 0.0 | 0.00 | 0.00 | 0.00 | 66 | 1016.7 |
| 20260831160330 | 85 | 107 | 0.0 | 0.0 | 0.00 | 0.00 | 0.00 | 65 | 1019.8 |
| 20260831155827 | 85 | 186 | 0.0 | 0.0 | 0.00 | 0.00 | 0.00 | 66 | 1019.7 |
| 20260831155553 | 85 | 169 | 0.0 | 0.0 | 0.00 | 0.00 | 0.00 | 66 | 1016.7 |
| 20260831155324 | 85 | 216 | 0.0 | 0.0 | 0.00 | 0.00 | 0.00 | 68 | 1019.8 |
| 20260831155041 | 84 | 177 | 0.0 | 0.0 | 0.00 | 0.00 | 0.00 | 68 | 1016.6 |
| 20260831154822 | 85 | 187 | 0.0 | 0.0 | 0.00 | 0.00 | 0.00 | 68 | 1019.8 |
| 20260831154535 | 84 | 201 | 0.0 | 0.0 | 0.00 | 0.00 | 0.00 | 68 | 1016.7 |
| 20260831154318 | 84 | 208 | 0.0 | 0.0 | 0.00 | 0.00 | 0.00 | 69 | 1019.6 |
| 20260831154028 | 84 | 135 | 0.0 | 0.0 | 0.00 | 0.00 | 0.00 | 70 | 1016.6 |
| 20260831153814 | 84 | 188 | 0.0 | 0.0 | 0.00 | 0.00 | 0.00 | 71 | 1019.6 |
| 20260831153513 | 83 | 185 | 0.0 | 0.0 | 0.00 | 0.00 | 0.00 | 71 | 1016.5 |
| 20260831153329 | 84 | 231 | 0.0 | 0.0 | 0.00 | 0.00 | 0.00 | 71 | 1019.5 |
| 20260831153005 | 83 | 173 | 0.0 | 0.0 | 0.00 | 0.00 | 0.00 | 71 | 1016.5 |
| 20260831152826 | 84 | 170 | 0.0 | 0.0 | 0.00 | 0.00 | 0.00 | 71 | 1019.4 |
| 20260831152559 | 83 | 189 | 0.0 | 0.0 | 0.00 | 0.00 | 0.00 | 71 | 1016.4 |
| 20260831152322 | 83 | 233 | 0.0 | 0.0 | 0.00 | 0.00 | 0.00 | 71 | 1019.4 |
| 20260831152054 | 83 | 218 | 0.0 | 0.0 | 0.00 | 0.00 | 0.00 | 72 | 1016.4 |
| 20260831151819 | 83 | 241 | 0.0 | 0.0 | 0.00 | 0.00 | 0.00 | 74 | 1019.4 |
| 20260831151553 | 82 | 231 | 0.0 | 0.0 | 0.00 | 0.00 | 0.00 | 74 | 1016.4 |
| 20260831151317 | 83 | 152 | 0.0 | 0.0 | 0.00 | 0.00 | 0.00 | 73 | 1019.4 |
| 20260831151037 | 82 | 166 | 0.0 | 0.0 | 0.00 | 0.00 | 0.00 | 73 | 1016.4 |
| 20260831150815 | 82 | 251 | 0.0 | 0.0 | 0.00 | 0.00 | 0.00 | 74 | 1019.3 |
| 20260831150528 | 82 | 163 | 0.0 | 0.0 | 0.00 | 0.00 | 0.00 | 75 | 1016.3 |
| 20260831150332 | 82 | 216 | 0.0 | 0.0 | 0.00 | 0.00 | 0.00 | 75 | 1019.3 |
| 20260831150016 | 81 | 193 | 0.0 | 0.0 | 0.00 | 0.00 | 0.00 | 75 | 1016.3 |
| 20260831145849 | 82 | 222 | 0.0 | 0.0 | 0.00 | 0.00 | 0.00 | 76 | 1019.3 |
| 20260831145549 | 81 | 206 | 0.0 | 0.0 | 0.00 | 0.00 | 0.00 | 76 | 1016.3 |
| 20260831145325 | 82 | 165 | 0.0 | 0.0 | 0.00 | 0.00 | 0.00 | 77 | 1019.2 |
| 20260831145040 | 81 | 187 | 0.0 | 7.0 | 0.00 | 0.00 | 0.00 | 77 | 1016.2 |
| 20260831144822 | 81 | 255 | 0.0 | 10.0 | 0.00 | 0.00 | 0.00 | 78 | 1019.2 |
| 20260831144533 | 81 | 214 | 0.0 | 10.0 | 0.00 | 0.00 | 0.00 | 78 | 1016.2 |
| 20260831144319 | 81 | 197 | 1.0 | 11.0 | 0.00 | 0.00 | 0.00 | 78 | 1019.1 |
| 20260831144021 | 80 | 170 | 7.0 | 15.0 | 0.00 | 0.00 | 0.00 | 78 | 1016.1 |
| 20260831143816 | 81 | 187 | 8.0 | 15.0 | 0.00 | 0.00 | 0.00 | 79 | 1019.1 |
| 20260831143547 | 80 | 197 | 6.0 | 15.0 | 0.00 | 0.00 | 0.00 | 79 | 1016.1 |
| 20260831143335 | 80 | 183 | 9.0 | 15.0 | 0.00 | 0.00 | 0.00 | 79 | 1019.2 |
| 20260831143022 | 80 | 205 | 6.0 | 13.0 | 0.00 | 0.00 | 0.00 | 80 | 1016.1 |
| 20260831142832 | 80 | 196 | 9.0 | 13.0 | 0.00 | 0.00 | 0.00 | 80 | 1019.2 |
| 20260831142509 | 79 | 201 | 7.0 | 11.0 | 0.00 | 0.00 | 0.00 | 80 | 1016.2 |
| 20260831142350 | 80 | 210 | 7.0 | 11.0 | 0.00 | 0.00 | 0.00 | 81 | 1019.1 |
| 20260831142043 | 79 | 223 | 10.0 | 13.0 | 0.00 | 0.00 | 0.00 | 81 | 1016.1 |
| 20260831141846 | 79 | 235 | 7.0 | 11.0 | 0.00 | 0.00 | 0.00 | 81 | 1019.1 |
| 20260831141503 | 79 | 161 | 7.0 | 11.0 | 0.00 | 0.00 | 0.00 | 82 | 1016.1 |
| 20260831141323 | 79 | 197 | 7.0 | 11.0 | 0.00 | 0.00 | 0.00 | 82 | 1019.1 |
| 20260831141100 | 79 | 210 | 8.0 | 12.0 | 0.00 | 0.00 | 0.00 | 82 | 1016.1 |
| 20260831140820 | 79 | 229 | 5.0 | 11.0 | 0.00 | 0.00 | 0.00 | 82 | 1019.0 |
| 20260831140549 | 78 | 212 | 4.0 | 11.0 | 0.00 | 0.00 | 0.00 | 83 | 1016.0 |
| 20260831140339 | 79 | 186 | 7.0 | 11.0 | 0.00 | 0.00 | 0.00 | 83 | 1019.1 |
| 20260831140024 | 78 | 213 | 7.0 | 10.0 | 0.00 | 0.00 | 0.00 | 83 | 1016.2 |
| 20260831135835 | 78 | 201 | 7.0 | 10.0 | 0.00 | 0.00 | 0.00 | 83 | 1019.1 |
| 20260831135549 | 78 | 196 | 8.0 | 10.0 | 0.00 | 0.00 | 0.00 | 83 | 1016.1 |
| 20260831135332 | 78 | 165 | 6.0 | 10.0 | 0.00 | 0.00 | 0.00 | 84 | 1019.0 |
| 20260831135041 | 77 | 233 | 5.0 | 10.0 | 0.00 | 0.00 | 0.00 | 84 | 1016.0 |
| 20260831134830 | 78 | 209 | 6.0 | 10.0 | 0.00 | 0.00 | 0.00 | 84 | 1019.0 |
| 20260831134533 | 77 | 203 | 4.0 | 9.0 | 0.00 | 0.00 | 0.00 | 85 | 1016.0 |
| 20260831134329 | 78 | 217 | 6.0 | 8.0 | 0.00 | 0.00 | 0.00 | 85 | 1018.9 |
| 20260831134024 | 77 | 201 | 4.0 | 9.0 | 0.00 | 0.00 | 0.00 | 85 | 1015.9 |
| 20260831133825 | 77 | 183 | 5.0 | 10.0 | 0.00 | 0.00 | 0.00 | 85 | 1018.9 |
| 20260831133525 | 77 | 214 | 5.0 | 10.0 | 0.00 | 0.00 | 0.00 | 85 | 1015.8 |
| 20260831133324 | 77 | 195 | 6.0 | 10.0 | 0.00 | 0.00 | 0.00 | 85 | 1018.8 |
| 20260831133006 | 76 | 179 | 5.0 | 9.0 | 0.00 | 0.00 | 0.00 | 86 | 1015.9 |
| 20260831132821 | 77 | 215 | 4.0 | 9.0 | 0.00 | 0.00 | 0.00 | 86 | 1018.8 |
| 20260831132557 | 76 | 189 | 5.0 | 9.0 | 0.00 | 0.00 | 0.00 | 86 | 1015.8 |
| 20260831132319 | 76 | 214 | 5.0 | 8.0 | 0.00 | 0.00 | 0.00 | 86 | 1018.8 |
| 20260831132049 | 76 | 188 | 4.0 | 8.0 | 0.00 | 0.00 | 0.00 | 86 | 1015.7 |
| 20260831131817 | 76 | 188 | 3.0 | 8.0 | 0.00 | 0.00 | 0.00 | 86 | 1018.7 |
| 20260831131540 | 76 | 181 | 3.0 | 7.0 | 0.00 | 0.00 | 0.00 | 86 | 1015.7 |
| 20260831131315 | 76 | 175 | 5.0 | 7.0 | 0.00 | 0.00 | 0.00 | 87 | 1018.7 |
| 20260831131035 | 75 | 198 | 3.0 | 5.0 | 0.00 | 0.00 | 0.00 | 87 | 1015.8 |
| 20260831130832 | 76 | 191 | 3.0 | 6.0 | 0.00 | 0.00 | 0.00 | 87 | 1018.6 |
| 20260831130529 | 75 | 214 | 2.0 | 5.0 | 0.00 | 0.00 | 0.00 | 86 | 1015.7 |
| 20260831130331 | 75 | 214 | 3.0 | 4.0 | 0.00 | 0.00 | 0.00 | 87 | 1018.7 |
| 20260831130013 | 75 | 172 | 2.0 | 3.0 | 0.00 | 0.00 | 0.00 | 87 | 1015.6 |
| 20260831125850 | 75 | 172 | 2.0 | 4.0 | 0.00 | 0.00 | 0.00 | 86 | 1018.6 |
| 20260831125543 | 75 | 172 | 1.0 | 5.0 | 0.00 | 0.00 | 0.00 | 87 | 1015.5 |
| 20260831125326 | 75 | 173 | 2.0 | 5.0 | 0.00 | 0.00 | 0.00 | 87 | 1018.5 |
| 20260831125035 | 74 | 172 | 2.0 | 5.0 | 0.00 | 0.00 | 0.00 | 87 | 1015.4 |
| 20260831124824 | 75 | 172 | 3.0 | 5.0 | 0.00 | 0.00 | 0.00 | 87 | 1018.3 |
| 20260831124527 | 74 | 177 | 2.0 | 5.0 | 0.00 | 0.00 | 0.00 | 87 | 1015.3 |
| 20260831124322 | 75 | 177 | 2.0 | 5.0 | 0.00 | 0.00 | 0.00 | 86 | 1018.3 |
| 20260831124027 | 74 | 178 | 2.0 | 5.0 | 0.00 | 0.00 | 0.00 | 86 | 1015.4 |
| 20260831123819 | 75 | 178 | 3.0 | 5.0 | 0.00 | 0.00 | 0.00 | 86 | 1018.3 |
| 20260831123520 | 74 | 178 | 2.0 | 4.0 | 0.00 | 0.00 | 0.00 | 86 | 1015.3 |
| 20260831123317 | 75 | 177 | 2.0 | 4.0 | 0.00 | 0.00 | 0.00 | 86 | 1018.4 |
| 20260831123017 | 74 | 177 | 2.0 | 4.0 | 0.00 | 0.00 | 0.00 | 86 | 1015.3 |
| 20260831122814 | 75 | 177 | 2.0 | 4.0 | 0.00 | 0.00 | 0.00 | 86 | 1018.4 |
| 20260831122502 | 74 | 177 | 2.0 | 4.0 | 0.00 | 0.00 | 0.00 | 86 | 1015.3 |
| 20260831122328 | 75 | 178 | 3.0 | 4.0 | 0.00 | 0.00 | 0.00 | 86 | 1018.3 |
| 20260831122054 | 74 | 177 | 1.0 | 6.0 | 0.00 | 0.00 | 0.00 | 85 | 1015.3 |
| 20260831121826 | 75 | 177 | 1.0 | 6.0 | 0.00 | 0.00 | 0.00 | 85 | 1018.3 |
| 20260831121547 | 74 | 178 | 1.0 | 6.0 | 0.00 | 0.00 | 0.00 | 85 | 1015.2 |
| 20260831121344 | 75 | 177 | 3.0 | 6.0 | 0.00 | 0.00 | 0.00 | 85 | 1018.3 |
| 20260831121009 | 74 | 201 | 2.0 | 5.0 | 0.00 | 0.00 | 0.00 | 85 | 1015.3 |
| 20260831120821 | 75 | 201 | 2.0 | 5.0 | 0.00 | 0.00 | 0.00 | 85 | 1018.3 |
| 20260831120601 | 74 | 202 | 1.0 | 5.0 | 0.00 | 0.00 | 0.00 | 85 | 1015.2 |
| 20260831120320 | 75 | 201 | 3.0 | 5.0 | 0.00 | 0.00 | 0.00 | 85 | 1018.2 |
| 20260831120052 | 75 | 218 | 2.0 | 5.0 | 0.00 | 0.00 | 0.00 | 85 | 1015.0 |
| 20260831115818 | 75 | 201 | 3.0 | 5.0 | 0.00 | 0.00 | 0.00 | 85 | 1018.1 |
| 20260831115544 | 75 | 223 | 1.0 | 4.0 | 0.00 | 0.00 | 0.00 | 84 | 1015.1 |
| 20260831115315 | 75 | 210 | 2.0 | 4.0 | 0.00 | 0.00 | 0.00 | 84 | 1018.2 |
| 20260831115035 | 75 | 210 | 2.0 | 8.0 | 0.00 | 0.00 | 0.00 | 84 | 1015.2 |
| 20260831114832 | 75 | 211 | 2.0 | 8.0 | 0.00 | 0.00 | 0.00 | 84 | 1018.2 |
| 20260831114528 | 75 | 192 | 4.0 | 8.0 | 0.00 | 0.00 | 0.00 | 85 | 1015.3 |
| 20260831114330 | 75 | 203 | 4.0 | 8.0 | 0.00 | 0.00 | 0.00 | 84 | 1018.3 |
| 20260831114009 | 75 | 186 | 2.0 | 6.0 | 0.00 | 0.00 | 0.00 | 84 | 1015.3 |
| 20260831113828 | 75 | 197 | 3.0 | 6.0 | 0.00 | 0.00 | 0.00 | 84 | 1018.2 |
| 20260831113502 | 75 | 171 | 3.0 | 6.0 | 0.00 | 0.00 | 0.00 | 84 | 1015.1 |
| 20260831113325 | 75 | 171 | 3.0 | 6.0 | 0.00 | 0.00 | 0.00 | 84 | 1018.0 |
| 20260831113053 | 75 | 174 | 3.0 | 6.0 | 0.00 | 0.00 | 0.00 | 84 | 1015.0 |
| 20260831112822 | 75 | 181 | 4.0 | 6.0 | 0.00 | 0.00 | 0.00 | 84 | 1017.8 |
| 20260831112548 | 75 | 173 | 3.0 | 6.0 | 0.00 | 0.00 | 0.00 | 84 | 1014.8 |
| 20260831112320 | 75 | 174 | 3.0 | 6.0 | 0.00 | 0.00 | 0.00 | 83 | 1017.8 |
| 20260831112036 | 75 | 166 | 3.0 | 6.0 | 0.00 | 0.00 | 0.00 | 83 | 1014.9 |
| 20260831111818 | 75 | 219 | 3.0 | 5.0 | 0.00 | 0.00 | 0.00 | 83 | 1017.9 |
| 20260831111528 | 75 | 218 | 2.0 | 5.0 | 0.00 | 0.00 | 0.00 | 83 | 1015.0 |
| 20260831111315 | 75 | 197 | 3.0 | 5.0 | 0.00 | 0.00 | 0.00 | 83 | 1018.0 |
| 20260831111018 | 75 | 197 | 2.0 | 5.0 | 0.00 | 0.00 | 0.00 | 83 | 1014.9 |
| 20260831110832 | 75 | 197 | 3.0 | 4.0 | 0.00 | 0.00 | 0.00 | 83 | 1017.9 |
| 20260831110505 | 75 | 161 | 2.0 | 4.0 | 0.00 | 0.00 | 0.00 | 83 | 1014.8 |
| 20260831110330 | 75 | 160 | 2.0 | 5.0 | 0.00 | 0.00 | 0.00 | 82 | 1017.8 |
| 20260831110057 | 75 | 160 | 0.0 | 5.0 | 0.00 | 0.00 | 0.00 | 82 | 1014.8 |
| 20260831105827 | 75 | 162 | 2.0 | 5.0 | 0.00 | 0.00 | 0.00 | 82 | 1017.7 |
| 20260831105547 | 75 | 195 | 3.0 | 5.0 | 0.00 | 0.00 | 0.00 | 82 | 1014.7 |
| 20260831105345 | 75 | 174 | 2.0 | 4.0 | 0.00 | 0.00 | 0.00 | 82 | 1017.7 |
| 20260831105009 | 75 | 174 | 0.0 | 3.0 | 0.00 | 0.00 | 0.00 | 81 | 1014.8 |
| 20260831104822 | 75 | 174 | 0.0 | 3.0 | 0.00 | 0.00 | 0.00 | 81 | 1017.8 |
| 20260831104502 | 75 | 174 | 1.0 | 4.0 | 0.00 | 0.00 | 0.00 | 81 | 1014.9 |
| 20260831104340 | 75 | 174 | 1.0 | 4.0 | 0.00 | 0.00 | 0.00 | 81 | 1018.0 |
| 20260831104033 | 75 | 174 | 1.0 | 4.0 | 0.00 | 0.00 | 0.00 | 81 | 1014.9 |
| 20260831103837 | 75 | 174 | 2.0 | 7.0 | 0.00 | 0.00 | 0.00 | 81 | 1017.8 |
| 20260831103556 | 75 | 174 | 0.0 | 7.0 | 0.00 | 0.00 | 0.00 | 81 | 1014.8 |
| 20260831103314 | 76 | 174 | 1.0 | 7.0 | 0.00 | 0.00 | 0.00 | 81 | 1017.7 |
| 20260831103048 | 75 | 174 | 2.0 | 8.0 | 0.00 | 0.00 | 0.00 | 81 | 1014.8 |
| 20260831102831 | 76 | 199 | 1.0 | 4.0 | 0.00 | 0.00 | 0.00 | 81 | 1017.7 |
| 20260831102539 | 75 | 199 | 1.0 | 4.0 | 0.00 | 0.00 | 0.00 | 80 | 1014.8 |
| 20260831102329 | 76 | 200 | 2.0 | 6.0 | 0.00 | 0.00 | 0.00 | 80 | 1017.7 |
| 20260831102029 | 75 | 200 | 2.0 | 6.0 | 0.00 | 0.00 | 0.00 | 80 | 1014.8 |
| 20260831101829 | 76 | 152 | 2.0 | 7.0 | 0.00 | 0.00 | 0.00 | 80 | 1017.8 |
| 20260831101513 | 75 | 182 | 2.0 | 7.0 | 0.00 | 0.00 | 0.00 | 80 | 1014.9 |
| 20260831101325 | 76 | 158 | 3.0 | 7.0 | 0.00 | 0.00 | 0.00 | 80 | 1017.8 |
| 20260831101003 | 75 | 164 | 2.0 | 7.0 | 0.00 | 0.00 | 0.00 | 80 | 1014.9 |
| 20260831100821 | 76 | 164 | 4.0 | 7.0 | 0.00 | 0.00 | 0.00 | 80 | 1018.0 |
| 20260831100537 | 75 | 186 | 4.0 | 7.0 | 0.00 | 0.00 | 0.00 | 80 | 1015.0 |
| 20260831100320 | 76 | 172 | 4.0 | 5.0 | 0.00 | 0.00 | 0.00 | 80 | 1018.0 |
| 20260831100027 | 76 | 148 | 3.0 | 5.0 | 0.00 | 0.00 | 0.00 | 80 | 1014.9 |
| 20260831095837 | 76 | 184 | 3.0 | 6.0 | 0.00 | 0.00 | 0.00 | 80 | 1017.8 |
| 20260831095550 | 76 | 172 | 2.0 | 8.0 | 0.00 | 0.00 | 0.00 | 79 | 1014.8 |
| 20260831095333 | 76 | 172 | 3.0 | 8.0 | 0.00 | 0.00 | 0.00 | 79 | 1017.7 |
| 20260831095041 | 76 | 172 | 5.0 | 8.0 | 0.00 | 0.00 | 0.00 | 80 | 1014.8 |
| 20260831094831 | 76 | 157 | 4.0 | 7.0 | 0.00 | 0.00 | 0.00 | 79 | 1017.8 |
| 20260831094532 | 76 | 147 | 3.0 | 7.0 | 0.00 | 0.00 | 0.00 | 79 | 1014.8 |
| 20260831094329 | 76 | 148 | 4.0 | 7.0 | 0.00 | 0.00 | 0.00 | 79 | 1017.7 |
| 20260831094025 | 76 | 143 | 3.0 | 8.0 | 0.00 | 0.00 | 0.00 | 79 | 1014.8 |
| 20260831093824 | 77 | 121 | 5.0 | 9.0 | 0.00 | 0.00 | 0.00 | 79 | 1017.7 |
| 20260831093511 | 76 | 155 | 4.0 | 9.0 | 0.00 | 0.00 | 0.00 | 79 | 1014.6 |
| 20260831093320 | 77 | 148 | 5.0 | 9.0 | 0.00 | 0.00 | 0.00 | 79 | 1017.7 |
| 20260831093010 | 76 | 161 | 5.0 | 8.0 | 0.00 | 0.00 | 0.00 | 78 | 1014.8 |
| 20260831092837 | 77 | 163 | 5.0 | 8.0 | 0.00 | 0.00 | 0.00 | 78 | 1017.8 |
| 20260831092536 | 76 | 146 | 4.0 | 8.0 | 0.00 | 0.00 | 0.00 | 78 | 1014.7 |
| 20260831092328 | 77 | 157 | 5.0 | 8.0 | 0.00 | 0.00 | 0.00 | 78 | 1017.7 |
| 20260831092103 | 77 | 152 | 5.0 | 8.0 | 0.00 | 0.00 | 0.00 | 77 | 1014.7 |
| 20260831091824 | 77 | 164 | 6.0 | 8.0 | 0.00 | 0.00 | 0.00 | 77 | 1017.7 |
| 20260831091557 | 77 | 164 | 5.0 | 8.0 | 0.00 | 0.00 | 0.00 | 77 | 1014.7 |
| 20260831091320 | 78 | 174 | 5.0 | 9.0 | 0.00 | 0.00 | 0.00 | 77 | 1017.6 |
| 20260831091048 | 77 | 173 | 5.0 | 9.0 | 0.00 | 0.00 | 0.00 | 77 | 1014.7 |
| 20260831090818 | 78 | 201 | 5.0 | 9.0 | 0.00 | 0.00 | 0.00 | 77 | 1017.5 |
| 20260831090532 | 77 | 184 | 6.0 | 9.0 | 0.00 | 0.00 | 0.00 | 77 | 1014.6 |
| 20260831090346 | 78 | 183 | 6.0 | 10.0 | 0.00 | 0.00 | 0.00 | 77 | 1017.6 |
| 20260831090100 | 77 | 189 | 5.0 | 10.0 | 0.00 | 0.00 | 0.00 | 76 | 1014.6 |
| 20260831085823 | 78 | 191 | 6.0 | 10.0 | 0.00 | 0.00 | 0.00 | 76 | 1017.6 |
| 20260831085552 | 77 | 177 | 5.0 | 9.0 | 0.00 | 0.00 | 0.00 | 76 | 1014.6 |
| 20260831085342 | 78 | 201 | 5.0 | 9.0 | 0.00 | 0.00 | 0.00 | 76 | 1017.5 |
| 20260831085024 | 77 | 194 | 4.0 | 9.0 | 0.00 | 0.00 | 0.00 | 76 | 1014.6 |
| 20260831084818 | 78 | 190 | 5.0 | 8.0 | 0.00 | 0.00 | 0.00 | 76 | 1017.6 |
| 20260831084521 | 78 | 185 | 5.0 | 9.0 | 0.00 | 0.00 | 0.00 | 76 | 1014.6 |
| 20260831084315 | 78 | 184 | 6.0 | 9.0 | 0.00 | 0.00 | 0.00 | 76 | 1017.6 |
| 20260831084015 | 78 | 181 | 5.0 | 9.0 | 0.00 | 0.00 | 0.00 | 76 | 1014.6 |
| 20260831083900 | 78 | 180 | 5.0 | 9.0 | 0.00 | 0.00 | 0.00 | 75 | 1017.5 |
| 20260831083536 | 78 | 201 | 5.0 | 9.0 | 0.00 | 0.00 | 0.00 | 75 | 1014.6 |
| 20260831083330 | 78 | 205 | 6.0 | 9.0 | 0.00 | 0.00 | 0.00 | 75 | 1017.6 |
| 20260831083031 | 78 | 193 | 5.0 | 9.0 | 0.00 | 0.00 | 0.00 | 75 | 1014.7 |
| 20260831082851 | 78 | 212 | 6.0 | 9.0 | 0.00 | 0.00 | 0.00 | 75 | 1017.6 |
| 20260831082552 | 78 | 183 | 4.0 | 8.0 | 0.00 | 0.00 | 0.00 | 75 | 1014.6 |
| 20260831082328 | 78 | 187 | 4.0 | 8.0 | 0.00 | 0.00 | 0.00 | 75 | 1017.6 |
| 20260831082046 | 78 | 195 | 4.0 | 8.0 | 0.00 | 0.00 | 0.00 | 75 | 1014.8 |
| 20260831081826 | 79 | 169 | 5.0 | 8.0 | 0.00 | 0.00 | 0.00 | 75 | 1017.6 |
| 20260831081539 | 78 | 201 | 4.0 | 8.0 | 0.00 | 0.00 | 0.00 | 75 | 1014.7 |
| 20260831081324 | 79 | 200 | 5.0 | 8.0 | 0.00 | 0.00 | 0.00 | 75 | 1017.7 |
| 20260831081034 | 78 | 179 | 4.0 | 9.0 | 0.00 | 0.00 | 0.00 | 75 | 1014.8 |
| 20260831080822 | 79 | 181 | 5.0 | 10.0 | 0.00 | 0.00 | 0.00 | 74 | 1017.7 |
| 20260831080526 | 78 | 201 | 4.0 | 10.0 | 0.00 | 0.00 | 0.00 | 74 | 1014.9 |
| 20260831080322 | 79 | 188 | 6.0 | 10.0 | 0.00 | 0.00 | 0.00 | 74 | 1017.7 |
| 20260831080010 | 79 | 200 | 5.0 | 9.0 | 0.00 | 0.00 | 0.00 | 74 | 1014.7 |
| 20260831075840 | 79 | 177 | 5.0 | 9.0 | 0.00 | 0.00 | 0.00 | 74 | 1017.6 |
| 20260831075600 | 79 | 187 | 6.0 | 9.0 | 0.00 | 0.00 | 0.00 | 74 | 1014.7 |
| 20260831075331 | 79 | 159 | 6.0 | 9.0 | 0.00 | 0.00 | 0.00 | 74 | 1017.7 |
| 20260831075054 | 79 | 177 | 6.0 | 9.0 | 0.00 | 0.00 | 0.00 | 74 | 1014.8 |
| 20260831074830 | 79 | 203 | 5.0 | 8.0 | 0.00 | 0.00 | 0.00 | 74 | 1017.8 |
| 20260831074546 | 79 | 177 | 4.0 | 6.0 | 0.00 | 0.00 | 0.00 | 74 | 1014.8 |
| 20260831074328 | 79 | 177 | 4.0 | 6.0 | 0.00 | 0.00 | 0.00 | 74 | 1017.8 |
| 20260831074038 | 79 | 173 | 4.0 | 7.0 | 0.00 | 0.00 | 0.00 | 74 | 1014.7 |
| 20260831073823 | 79 | 195 | 5.0 | 7.0 | 0.00 | 0.00 | 0.00 | 74 | 1017.7 |
| 20260831073529 | 79 | 148 | 4.0 | 7.0 | 0.00 | 0.00 | 0.00 | 74 | 1014.9 |
| 20260831073341 | 80 | 182 | 4.0 | 8.0 | 0.00 | 0.00 | 0.00 | 74 | 1017.8 |
| 20260831073059 | 79 | 160 | 4.0 | 8.0 | 0.00 | 0.00 | 0.00 | 74 | 1014.8 |
| 20260831072820 | 80 | 195 | 5.0 | 8.0 | 0.00 | 0.00 | 0.00 | 74 | 1017.9 |
| 20260831072551 | 79 | 201 | 5.0 | 8.0 | 0.00 | 0.00 | 0.00 | 74 | 1014.9 |
| 20260831072340 | 80 | 212 | 5.0 | 8.0 | 0.00 | 0.00 | 0.00 | 74 | 1017.8 |
| 20260831072020 | 79 | 210 | 5.0 | 8.0 | 0.00 | 0.00 | 0.00 | 74 | 1015.0 |
| 20260831071816 | 80 | 187 | 5.0 | 8.0 | 0.00 | 0.00 | 0.00 | 74 | 1017.9 |
| 20260831071527 | 79 | 193 | 4.0 | 8.0 | 0.00 | 0.00 | 0.00 | 74 | 1014.8 |
| 20260831071313 | 80 | 199 | 5.0 | 8.0 | 0.00 | 0.00 | 0.00 | 73 | 1017.8 |
| 20260831071103 | 79 | 199 | 4.0 | 9.0 | 0.00 | 0.00 | 0.00 | 73 | 1014.9 |
| 20260831070832 | 80 | 179 | 4.0 | 7.0 | 0.00 | 0.00 | 0.00 | 73 | 1017.9 |
| 20260831070553 | 80 | 173 | 4.0 | 7.0 | 0.00 | 0.00 | 0.00 | 73 | 1014.9 |
| 20260831070313 | 80 | 191 | 4.0 | 7.0 | 0.00 | 0.00 | 0.00 | 73 | 1017.9 |
| 20260831070045 | 80 | 185 | 4.0 | 6.0 | 0.00 | 0.00 | 0.00 | 73 | 1014.9 |
| 20260831065852 | 80 | 152 | 5.0 | 7.0 | 0.00 | 0.00 | 0.00 | 73 | 1017.7 |
| 20260831065506 | 80 | 196 | 3.0 | 5.0 | 0.00 | 0.00 | 0.00 | 73 | 1014.9 |
| 20260831065329 | 80 | 189 | 4.0 | 6.0 | 0.00 | 0.00 | 0.00 | 72 | 1017.8 |
| 20260831065059 | 80 | 177 | 3.0 | 5.0 | 0.00 | 0.00 | 0.00 | 72 | 1014.9 |
| 20260831064847 | 80 | 192 | 3.0 | 5.0 | 0.00 | 0.00 | 0.00 | 72 | 1017.9 |
| 20260831064529 | 80 | 189 | 2.0 | 5.0 | 0.00 | 0.00 | 0.00 | 72 | 1015.0 |
| 20260831064322 | 80 | 189 | 3.0 | 5.0 | 0.00 | 0.00 | 0.00 | 72 | 1017.9 |
| 20260831064022 | 80 | 189 | 3.0 | 5.0 | 0.00 | 0.00 | 0.00 | 72 | 1015.0 |
| 20260831063821 | 80 | 189 | 4.0 | 5.0 | 0.00 | 0.00 | 0.00 | 72 | 1018.0 |
| 20260831063504 | 80 | 164 | 3.0 | 6.0 | 0.00 | 0.00 | 0.00 | 71 | 1015.0 |
| 20260831063317 | 80 | 179 | 3.0 | 5.0 | 0.00 | 0.00 | 0.00 | 71 | 1017.9 |
| 20260831063101 | 80 | 179 | 3.0 | 6.0 | 0.00 | 0.00 | 0.00 | 71 | 1015.0 |
| 20260831062815 | 80 | 181 | 4.0 | 7.0 | 0.00 | 0.00 | 0.00 | 71 | 1018.0 |
| 20260831062556 | 80 | 185 | 3.0 | 7.0 | 0.00 | 0.00 | 0.00 | 71 | 1015.0 |
| 20260831062328 | 81 | 162 | 4.0 | 7.0 | 0.00 | 0.00 | 0.00 | 71 | 1018.0 |
| 20260831062056 | 80 | 185 | 4.0 | 7.0 | 0.00 | 0.00 | 0.00 | 71 | 1015.0 |
| 20260831061844 | 81 | 165 | 5.0 | 7.0 | 0.00 | 0.00 | 0.00 | 70 | 1017.9 |
| 20260831061524 | 80 | 189 | 4.0 | 7.0 | 0.00 | 0.00 | 0.00 | 70 | 1014.9 |
| 20260831061321 | 81 | 161 | 4.0 | 7.0 | 0.00 | 0.00 | 0.00 | 70 | 1017.9 |
| 20260831061006 | 80 | 174 | 4.0 | 7.0 | 0.00 | 0.00 | 0.00 | 70 | 1014.9 |
| 20260831060818 | 81 | 172 | 4.0 | 7.0 | 0.00 | 0.00 | 0.00 | 70 | 1017.9 |
| 20260831060537 | 80 | 172 | 5.0 | 7.0 | 0.00 | 0.00 | 0.00 | 70 | 1014.9 |
| 20260831060315 | 81 | 155 | 5.0 | 7.0 | 0.00 | 0.00 | 0.00 | 69 | 1017.9 |
| 20260831060030 | 80 | 167 | 4.0 | 7.0 | 0.00 | 0.00 | 0.00 | 69 | 1014.9 |
| 20260831055829 | 81 | 173 | 4.0 | 7.0 | 0.00 | 0.00 | 0.00 | 69 | 1017.9 |
| 20260831055602 | 80 | 180 | 4.0 | 6.0 | 0.00 | 0.00 | 0.00 | 69 | 1015.0 |
| 20260831055326 | 81 | 152 | 4.0 | 6.0 | 0.00 | 0.00 | 0.00 | 69 | 1017.9 |
| 20260831055054 | 80 | 184 | 4.0 | 7.0 | 0.00 | 0.00 | 0.00 | 68 | 1015.0 |
| 20260831054823 | 81 | 170 | 5.0 | 7.0 | 0.00 | 0.00 | 0.00 | 68 | 1017.9 |
| 20260831054544 | 80 | 164 | 4.0 | 7.0 | 0.00 | 0.00 | 0.00 | 68 | 1015.0 |
| 20260831054321 | 81 | 157 | 5.0 | 8.0 | 0.00 | 0.00 | 0.00 | 68 | 1017.9 |
| 20260831054036 | 80 | 183 | 4.0 | 8.0 | 0.00 | 0.00 | 0.00 | 68 | 1015.0 |
| 20260831053818 | 81 | 160 | 4.0 | 8.0 | 0.00 | 0.00 | 0.00 | 68 | 1018.0 |
| 20260831053526 | 80 | 162 | 4.0 | 7.0 | 0.00 | 0.00 | 0.00 | 68 | 1015.0 |
| 20260831053317 | 81 | 158 | 4.0 | 7.0 | 0.00 | 0.00 | 0.00 | 67 | 1017.9 |
| 20260831053021 | 80 | 147 | 4.0 | 7.0 | 0.00 | 0.00 | 0.00 | 67 | 1015.0 |
| 20260831052813 | 81 | 175 | 5.0 | 8.0 | 0.00 | 0.00 | 0.00 | 67 | 1017.9 |
| 20260831052603 | 80 | 174 | 3.0 | 7.0 | 0.00 | 0.00 | 0.00 | 67 | 1015.0 |
| 20260831052351 | 81 | 160 | 4.0 | 7.0 | 0.00 | 0.00 | 0.00 | 67 | 1017.9 |
| 20260831052033 | 80 | 164 | 4.0 | 7.0 | 0.00 | 0.00 | 0.00 | 66 | 1014.9 |
| 20260831051829 | 81 | 154 | 5.0 | 7.0 | 0.00 | 0.00 | 0.00 | 66 | 1017.7 |
| 20260831051514 | 81 | 174 | 4.0 | 8.0 | 0.00 | 0.00 | 0.00 | 66 | 1014.9 |
| 20260831051326 | 81 | 150 | 5.0 | 7.0 | 0.00 | 0.00 | 0.00 | 66 | 1017.8 |
| 20260831051007 | 81 | 149 | 4.0 | 6.0 | 0.00 | 0.00 | 0.00 | 66 | 1014.8 |
| 20260831050825 | 81 | 145 | 5.0 | 6.0 | 0.00 | 0.00 | 0.00 | 65 | 1017.7 |
| 20260831050558 | 81 | 163 | 4.0 | 7.0 | 0.00 | 0.00 | 0.00 | 65 | 1014.9 |
| 20260831050342 | 81 | 164 | 5.0 | 7.0 | 0.00 | 0.00 | 0.00 | 65 | 1017.8 |
| 20260831050124 | 81 | 183 | 4.0 | 6.0 | 0.00 | 0.00 | 0.00 | 65 | 1014.9 |
| 20260831045830 | 81 | 160 | 4.0 | 6.0 | 0.00 | 0.00 | 0.00 | 65 | 1017.7 |
| 20260831045555 | 81 | 147 | 3.0 | 6.0 | 0.00 | 0.00 | 0.00 | 64 | 1014.8 |
| 20260831045330 | 81 | 159 | 3.0 | 5.0 | 0.00 | 0.00 | 0.00 | 64 | 1017.6 |
| 20260831045052 | 81 | 159 | 3.0 | 6.0 | 0.00 | 0.00 | 0.00 | 64 | 1014.7 |
| 20260831044831 | 81 | 159 | 3.0 | 6.0 | 0.00 | 0.00 | 0.00 | 64 | 1017.6 |
| 20260831044541 | 81 | 159 | 3.0 | 6.0 | 0.00 | 0.00 | 0.00 | 64 | 1014.7 |
| 20260831044350 | 81 | 158 | 3.0 | 6.0 | 0.00 | 0.00 | 0.00 | 64 | 1017.6 |
| 20260831044002 | 81 | 159 | 3.0 | 6.0 | 0.00 | 0.00 | 0.00 | 63 | 1014.7 |
| 20260831043829 | 81 | 159 | 4.0 | 6.0 | 0.00 | 0.00 | 0.00 | 63 | 1017.6 |
| 20260831043600 | 81 | 159 | 3.0 | 6.0 | 0.00 | 0.00 | 0.00 | 63 | 1014.6 |
| 20260831043326 | 81 | 160 | 3.0 | 6.0 | 0.00 | 0.00 | 0.00 | 63 | 1017.5 |
| 20260831043049 | 81 | 159 | 3.0 | 5.0 | 0.00 | 0.00 | 0.00 | 63 | 1014.6 |
| 20260831042826 | 81 | 170 | 4.0 | 5.0 | 0.00 | 0.00 | 0.00 | 63 | 1017.5 |
| 20260831042543 | 81 | 145 | 3.0 | 6.0 | 0.00 | 0.00 | 0.00 | 62 | 1014.5 |
| 20260831042325 | 82 | 146 | 3.0 | 5.0 | 0.00 | 0.00 | 0.00 | 62 | 1017.3 |
| 20260831042034 | 81 | 149 | 2.0 | 5.0 | 0.00 | 0.00 | 0.00 | 62 | 1014.4 |
| 20260831041825 | 82 | 130 | 3.0 | 5.0 | 0.00 | 0.00 | 0.00 | 62 | 1017.3 |
| 20260831041529 | 81 | 143 | 3.0 | 6.0 | 0.00 | 0.00 | 0.00 | 61 | 1014.5 |
| 20260831041322 | 82 | 158 | 4.0 | 7.0 | 0.00 | 0.00 | 0.00 | 61 | 1017.3 |
| 20260831041023 | 81 | 152 | 3.0 | 7.0 | 0.00 | 0.00 | 0.00 | 61 | 1014.4 |
| 20260831040821 | 82 | 140 | 3.0 | 7.0 | 0.00 | 0.00 | 0.00 | 61 | 1017.3 |
| 20260831040505 | 81 | 158 | 3.0 | 7.0 | 0.00 | 0.00 | 0.00 | 60 | 1014.4 |
| 20260831040320 | 82 | 139 | 4.0 | 7.0 | 0.00 | 0.00 | 0.00 | 60 | 1017.3 |
| 20260831040059 | 81 | 138 | 4.0 | 9.0 | 0.00 | 0.00 | 0.00 | 60 | 1014.4 |
| 20260831035839 | 82 | 158 | 3.0 | 9.0 | 0.00 | 0.00 | 0.00 | 60 | 1017.2 |
| 20260831035528 | 82 | 162 | 4.0 | 9.0 | 0.00 | 0.00 | 0.00 | 60 | 1014.2 |
| 20260831035317 | 82 | 143 | 2.0 | 4.0 | 0.00 | 0.00 | 0.00 | 59 | 1017.1 |
| 20260831035020 | 82 | 154 | 2.0 | 8.0 | 0.00 | 0.00 | 0.00 | 59 | 1014.2 |
| 20260831034815 | 82 | 154 | 3.0 | 9.0 | 0.00 | 0.00 | 0.00 | 59 | 1017.2 |
| 20260831034505 | 82 | 156 | 3.0 | 9.0 | 0.00 | 0.00 | 0.00 | 59 | 1014.2 |
| 20260831034353 | 82 | 162 | 6.0 | 9.0 | 0.00 | 0.00 | 0.00 | 59 | 1017.2 |
| 20260831034039 | 81 | 151 | 4.0 | 9.0 | 0.00 | 0.00 | 0.00 | 59 | 1014.1 |
| 20260831033849 | 82 | 164 | 1.0 | 3.0 | 0.00 | 0.00 | 0.00 | 59 | 1017.0 |
| 20260831033600 | 82 | 165 | 0.0 | 0.0 | 0.00 | 0.00 | 0.00 | 58 | 1014.0 |
| 20260831033327 | 82 | 165 | 0.0 | 1.0 | 0.00 | 0.00 | 0.00 | 58 | 1016.8 |
| 20260831033054 | 82 | 165 | 0.0 | 2.0 | 0.00 | 0.00 | 0.00 | 58 | 1013.7 |
| 20260831032819 | 82 | 164 | 0.0 | 2.0 | 0.00 | 0.00 | 0.00 | 57 | 1016.8 |
| 20260831032530 | 82 | 165 | 0.0 | 3.0 | 0.00 | 0.00 | 0.00 | 57 | 1014.0 |
| 20260831032317 | 83 | 165 | 2.0 | 3.0 | 0.00 | 0.00 | 0.00 | 57 | 1016.8 |
| 20260831032026 | 82 | 165 | 2.0 | 3.0 | 0.00 | 0.00 | 0.00 | 57 | 1013.9 |
| 20260831031815 | 83 | 165 | 2.0 | 3.0 | 0.00 | 0.00 | 0.00 | 57 | 1016.8 |
| 20260831031521 | 82 | 165 | 2.0 | 3.0 | 0.00 | 0.00 | 0.00 | 57 | 1013.8 |
| 20260831031331 | 83 | 165 | 3.0 | 3.0 | 0.00 | 0.00 | 0.00 | 57 | 1016.7 |
| 20260831031042 | 82 | 164 | 2.0 | 3.0 | 0.00 | 0.00 | 0.00 | 56 | 1013.7 |
| 20260831030830 | 83 | 165 | 3.0 | 4.0 | 0.00 | 0.00 | 0.00 | 56 | 1016.7 |
| 20260831030534 | 83 | 165 | 2.0 | 4.0 | 0.00 | 0.00 | 0.00 | 56 | 1013.6 |
| 20260831030329 | 83 | 165 | 3.0 | 4.0 | 0.00 | 0.00 | 0.00 | 56 | 1016.6 |
| 20260831030016 | 83 | 165 | 2.0 | 3.0 | 0.00 | 0.00 | 0.00 | 56 | 1013.7 |
| 20260831025827 | 83 | 165 | 1.0 | 3.0 | 0.00 | 0.00 | 0.00 | 55 | 1016.7 |
| 20260831025506 | 83 | 165 | 0.0 | 2.0 | 0.00 | 0.00 | 0.00 | 55 | 1013.6 |
| 20260831025323 | 83 | 165 | 1.0 | 3.0 | 0.00 | 0.00 | 0.00 | 55 | 1016.5 |
| 20260831025100 | 83 | 165 | 0.0 | 1.0 | 0.00 | 0.00 | 0.00 | 55 | 1013.6 |
| 20260831024821 | 84 | 165 | 0.0 | 2.0 | 0.00 | 0.00 | 0.00 | 55 | 1016.5 |
| 20260831024550 | 83 | 165 | 0.0 | 3.0 | 0.00 | 0.00 | 0.00 | 55 | 1013.4 |
| 20260831024339 | 84 | 165 | 1.0 | 3.0 | 0.00 | 0.00 | 0.00 | 54 | 1016.4 |
| 20260831024036 | 83 | 165 | 1.0 | 3.0 | 0.00 | 0.00 | 0.00 | 54 | 1013.4 |
| 20260831023830 | 84 | 164 | 2.0 | 3.0 | 0.00 | 0.00 | 0.00 | 54 | 1016.4 |
| 20260831023529 | 84 | 166 | 2.0 | 5.0 | 0.00 | 0.00 | 0.00 | 54 | 1013.3 |
| 20260831023327 | 84 | 165 | 2.0 | 5.0 | 0.00 | 0.00 | 0.00 | 54 | 1016.2 |
| 20260831023010 | 84 | 165 | 3.0 | 5.0 | 0.00 | 0.00 | 0.00 | 54 | 1013.2 |
| 20260831022825 | 84 | 165 | 4.0 | 5.0 | 0.00 | 0.00 | 0.00 | 54 | 1016.2 |
| 20260831022606 | 84 | 165 | 3.0 | 5.0 | 0.00 | 0.00 | 0.00 | 54 | 1013.2 |
| 20260831022342 | 85 | 164 | 3.0 | 5.0 | 0.00 | 0.00 | 0.00 | 53 | 1016.1 |
| 20260831022032 | 84 | 164 | 3.0 | 5.0 | 0.00 | 0.00 | 0.00 | 53 | 1013.1 |
| 20260831021818 | 85 | 164 | 4.0 | 5.0 | 0.00 | 0.00 | 0.00 | 53 | 1016.0 |
| 20260831021525 | 84 | 165 | 3.0 | 5.0 | 0.00 | 0.00 | 0.00 | 53 | 1013.0 |
| 20260831021315 | 85 | 164 | 4.0 | 4.0 | 0.00 | 0.00 | 0.00 | 53 | 1016.0 |
| 20260831021015 | 85 | 165 | 3.0 | 5.0 | 0.00 | 0.00 | 0.00 | 52 | 1012.9 |
| 20260831020832 | 85 | 165 | 4.0 | 5.0 | 0.00 | 0.00 | 0.00 | 52 | 1015.9 |
| 20260831020602 | 85 | 165 | 3.0 | 5.0 | 0.00 | 0.00 | 0.00 | 52 | 1012.9 |
| 20260831020351 | 86 | 165 | 4.0 | 5.0 | 0.00 | 0.00 | 0.00 | 52 | 1015.8 |
| 20260831020031 | 85 | 164 | 3.0 | 5.0 | 0.00 | 0.00 | 0.00 | 52 | 1012.8 |
| 20260831015829 | 86 | 164 | 3.0 | 5.0 | 0.00 | 0.00 | 0.00 | 51 | 1015.8 |
| 20260831015514 | 86 | 165 | 2.0 | 5.0 | 0.00 | 0.00 | 0.00 | 51 | 1012.8 |
| 20260831015326 | 86 | 152 | 3.0 | 5.0 | 0.00 | 0.00 | 0.00 | 51 | 1015.8 |
| 20260831015004 | 86 | 152 | 2.0 | 3.0 | 0.00 | 0.00 | 0.00 | 50 | 1012.8 |
| 20260831014824 | 87 | 152 | 2.0 | 3.0 | 0.00 | 0.00 | 0.00 | 50 | 1015.7 |
| 20260831014558 | 86 | 152 | 1.0 | 3.0 | 0.00 | 0.00 | 0.00 | 50 | 1012.8 |
| 20260831014321 | 87 | 152 | 2.0 | 3.0 | 0.00 | 0.00 | 0.00 | 50 | 1015.7 |
| 20260831014048 | 87 | 152 | 1.0 | 3.0 | 0.00 | 0.00 | 0.00 | 50 | 1012.7 |
| 20260831013819 | 87 | 152 | 2.0 | 3.0 | 0.00 | 0.00 | 0.00 | 49 | 1015.8 |
| 20260831013538 | 87 | 152 | 1.0 | 3.0 | 0.00 | 0.00 | 0.00 | 49 | 1012.7 |
| 20260831013317 | 88 | 152 | 1.0 | 3.0 | 0.00 | 0.00 | 0.00 | 49 | 1015.6 |
| 20260831013028 | 87 | 152 | 0.0 | 0.0 | 0.00 | 0.00 | 0.00 | 49 | 1012.7 |
| 20260831012816 | 88 | 152 | 0.0 | 0.0 | 0.00 | 0.00 | 0.00 | 49 | 1015.6 |
| 20260831012520 | 88 | 152 | 0.0 | 0.0 | 0.00 | 0.00 | 0.00 | 49 | 1012.6 |
| 20260831012333 | 88 | 152 | 0.0 | 0.0 | 0.00 | 0.00 | 0.00 | 48 | 1015.6 |
| 20260831012004 | 88 | 152 | 0.0 | 0.0 | 0.00 | 0.00 | 0.00 | 48 | 1012.6 |
| 20260831011831 | 88 | 142 | 0.0 | 0.0 | 0.00 | 0.00 | 0.00 | 48 | 1015.6 |
| 20260831011534 | 88 | 143 | 0.0 | 0.0 | 0.00 | 0.00 | 0.00 | 48 | 1012.5 |
| 20260831011329 | 89 | 139 | 0.0 | 0.0 | 0.00 | 0.00 | 0.00 | 48 | 1015.6 |
| 20260831011024 | 89 | 152 | 0.0 | 0.0 | 0.00 | 0.00 | 0.00 | 47 | 1012.6 |
| 20260831010826 | 89 | 149 | 0.0 | 0.0 | 0.00 | 0.00 | 0.00 | 47 | 1015.5 |
| 20260831010508 | 89 | 156 | 0.0 | 0.0 | 0.00 | 0.00 | 0.00 | 47 | 1012.6 |
| 20260831010322 | 90 | 159 | 0.0 | 0.0 | 0.00 | 0.00 | 0.00 | 47 | 1015.5 |
| 20260831010044 | 89 | 155 | 0.0 | 0.0 | 0.00 | 0.00 | 0.00 | 47 | 1012.5 |
| 20260831005819 | 90 | 147 | 0.0 | 0.0 | 0.00 | 0.00 | 0.00 | 46 | 1015.5 |
| 20260831005530 | 90 | 131 | 0.0 | 0.0 | 0.00 | 0.00 | 0.00 | 46 | 1012.4 |
| 20260831005336 | 90 | 148 | 0.0 | 0.0 | 0.00 | 0.00 | 0.00 | 46 | 1015.5 |
| 20260831005057 | 90 | 156 | 0.0 | 0.0 | 0.00 | 0.00 | 0.00 | 46 | 1012.4 |
| 20260831004814 | 91 | 138 | 0.0 | 0.0 | 0.00 | 0.00 | 0.00 | 46 | 1015.5 |
| 20260831004546 | 90 | 150 | 0.0 | 0.0 | 0.00 | 0.00 | 0.00 | 46 | 1012.4 |
| 20260831004332 | 91 | 158 | 0.0 | 0.0 | 0.00 | 0.00 | 0.00 | 45 | 1015.4 |
| 20260831004044 | 90 | 137 | 0.0 | 0.0 | 0.00 | 0.00 | 0.00 | 45 | 1012.4 |
| 20260831003829 | 91 | 149 | 0.0 | 0.0 | 0.00 | 0.00 | 0.00 | 45 | 1015.3 |
| 20260831003529 | 91 | 145 | 0.0 | 0.0 | 0.00 | 0.00 | 0.00 | 45 | 1012.4 |
| 20260831003325 | 91 | 150 | 0.0 | 0.0 | 0.00 | 0.00 | 0.00 | 44 | 1015.3 |
| 20260831003022 | 91 | 170 | 0.0 | 0.0 | 0.00 | 0.00 | 0.00 | 44 | 1012.3 |
| 20260831002823 | 92 | 132 | 0.0 | 0.0 | 0.00 | 0.00 | 0.00 | 44 | 1015.3 |
| 20260831002501 | 91 | 140 | 0.0 | 0.0 | 0.00 | 0.00 | 0.00 | 44 | 1012.3 |
| 20260831002320 | 92 | 127 | 0.0 | 0.0 | 0.00 | 0.00 | 0.00 | 44 | 1015.3 |
| 20260831002105 | 91 | 127 | 0.0 | 0.0 | 0.00 | 0.00 | 0.00 | 44 | 1012.4 |
| 20260831001819 | 92 | 128 | 0.0 | 0.0 | 0.00 | 0.00 | 0.00 | 44 | 1015.3 |
| 20260831001608 | 92 | 132 | 0.0 | 0.0 | 0.00 | 0.00 | 0.00 | 44 | 1012.3 |
| 20260831001318 | 92 | 149 | 0.0 | 0.0 | 0.00 | 0.00 | 0.00 | 44 | 1015.4 |
| 20260831001100 | 92 | 170 | 0.0 | 0.0 | 0.00 | 0.00 | 0.00 | 44 | 1012.3 |
| 20260831000837 | 93 | 150 | 0.0 | 0.0 | 0.00 | 0.00 | 0.00 | 44 | 1015.4 |
| 20260831000532 | 92 | 152 | 0.0 | 0.0 | 0.00 | 0.00 | 0.00 | 43 | 1012.3 |
| 20260831000318 | 93 | 116 | 0.0 | 0.0 | 0.00 | 0.00 | 0.00 | 43 | 1015.4 |
| 20260831000026 | 92 | 138 | 0.0 | 0.0 | 0.00 | 0.00 | 0.00 | 43 | 1012.4 |
| 20260830235814 | 93 | 166 | 0.0 | 0.0 | 0.00 | 0.00 | 0.00 | 43 | 1015.4 |
| 20260830235511 | 92 | 162 | 0.0 | 0.0 | 0.00 | 0.00 | 0.00 | 43 | 1012.3 |
| 20260830235329 | 93 | 147 | 0.0 | 0.0 | 0.00 | 0.00 | 0.00 | 43 | 1015.4 |
| 20260830235002 | 93 | 150 | 0.0 | 0.0 | 0.00 | 0.00 | 0.00 | 43 | 1012.4 |
| 20260830234827 | 93 | 152 | 0.0 | 0.0 | 0.00 | 0.00 | 0.00 | 43 | 1015.3 |
| 20260830234602 | 93 | 152 | 0.0 | 0.0 | 0.00 | 0.00 | 0.00 | 43 | 1012.3 |
| 20260830234326 | 93 | 114 | 0.0 | 0.0 | 0.00 | 0.00 | 0.00 | 43 | 1015.3 |
| 20260830234050 | 93 | 133 | 0.0 | 0.0 | 0.00 | 0.00 | 0.00 | 43 | 1012.3 |
| 20260830233825 | 93 | 93 | 0.0 | 0.0 | 0.00 | 0.00 | 0.00 | 43 | 1015.3 |
| 20260830233546 | 93 | 133 | 0.0 | 0.0 | 0.00 | 0.00 | 0.00 | 43 | 1012.3 |
| 20260830233324 | 93 | 146 | 0.0 | 0.0 | 0.00 | 0.00 | 0.00 | 43 | 1015.3 |
| 20260830233038 | 93 | 120 | 0.0 | 0.0 | 0.00 | 0.00 | 0.00 | 43 | 1012.3 |
| 20260830232822 | 94 | 137 | 0.0 | 0.0 | 0.00 | 0.00 | 0.00 | 42 | 1015.3 |
| 20260830232530 | 93 | 145 | 0.0 | 0.0 | 0.00 | 0.00 | 0.00 | 41 | 1012.3 |
| 20260830232321 | 94 | 153 | 0.0 | 0.0 | 0.00 | 0.00 | 0.00 | 41 | 1015.3 |
| 20260830232025 | 93 | 145 | 0.0 | 0.0 | 0.00 | 0.00 | 0.00 | 41 | 1012.3 |
| 20260830231838 | 94 | 152 | 0.0 | 0.0 | 0.00 | 0.00 | 0.00 | 41 | 1015.3 |
| 20260830231515 | 93 | 160 | 0.0 | 0.0 | 0.00 | 0.00 | 0.00 | 42 | 1012.2 |
| 20260830231331 | 94 | 152 | 0.0 | 0.0 | 0.00 | 0.00 | 0.00 | 42 | 1015.1 |
| 20260830231100 | 94 | 181 | 0.0 | 0.0 | 0.00 | 0.00 | 0.00 | 41 | 1012.1 |
| 20260830230830 | 94 | 154 | 0.0 | 0.0 | 0.00 | 0.00 | 0.00 | 41 | 1015.1 |
| 20260830230549 | 93 | 174 | 0.0 | 0.0 | 0.00 | 0.00 | 0.00 | 41 | 1012.1 |
| 20260830230330 | 94 | 171 | 0.0 | 0.0 | 0.00 | 0.00 | 0.00 | 41 | 1015.2 |
| 20260830230045 | 93 | 158 | 0.0 | 0.0 | 0.00 | 0.00 | 0.00 | 42 | 1012.2 |
| 20260830225829 | 94 | 60 | 0.0 | 0.0 | 0.00 | 0.00 | 0.00 | 42 | 1015.1 |
| 20260830225532 | 93 | 125 | 0.0 | 0.0 | 0.00 | 0.00 | 0.00 | 42 | 1012.2 |
| 20260830225325 | 93 | 139 | 0.0 | 0.0 | 0.00 | 0.00 | 0.00 | 42 | 1015.2 |
| 20260830225026 | 93 | 103 | 0.0 | 0.0 | 0.00 | 0.00 | 0.00 | 42 | 1012.3 |
| 20260830224823 | 93 | 121 | 0.0 | 0.0 | 0.00 | 0.00 | 0.00 | 42 | 1015.3 |
| 20260830224524 | 93 | 93 | 0.0 | 0.0 | 0.00 | 0.00 | 0.00 | 42 | 1012.3 |
| 20260830224322 | 94 | 146 | 0.0 | 0.0 | 0.00 | 0.00 | 0.00 | 42 | 1015.3 |
| 20260830224004 | 94 | 112 | 0.0 | 0.0 | 0.00 | 0.00 | 0.00 | 42 | 1012.3 |
| 20260830223820 | 94 | 164 | 0.0 | 0.0 | 0.00 | 0.00 | 0.00 | 42 | 1015.3 |
| 20260830223602 | 94 | 137 | 0.0 | 0.0 | 0.00 | 0.00 | 0.00 | 42 | 1012.3 |
| 20260830223338 | 95 | 137 | 0.0 | 0.0 | 0.00 | 0.00 | 0.00 | 42 | 1015.3 |
| 20260830223048 | 94 | 154 | 0.0 | 0.0 | 0.00 | 0.00 | 0.00 | 42 | 1012.4 |
| 20260830222830 | 94 | 114 | 0.0 | 0.0 | 0.00 | 0.00 | 0.00 | 43 | 1015.3 |
| 20260830222539 | 94 | 144 | 0.0 | 0.0 | 0.00 | 0.00 | 0.00 | 43 | 1012.3 |
| 20260830222329 | 94 | 116 | 0.0 | 0.0 | 0.00 | 0.00 | 0.00 | 43 | 1015.3 |
| 20260830222036 | 93 | 118 | 0.0 | 0.0 | 0.00 | 0.00 | 0.00 | 43 | 1012.3 |
| 20260830221829 | 94 | 145 | 0.0 | 0.0 | 0.00 | 0.00 | 0.00 | 43 | 1015.4 |
| 20260830221518 | 93 | 147 | 0.0 | 0.0 | 0.00 | 0.00 | 0.00 | 43 | 1012.4 |
| 20260830221329 | 94 | 141 | 0.0 | 0.0 | 0.00 | 0.00 | 0.00 | 42 | 1015.4 |
| 20260830221011 | 94 | 156 | 0.0 | 0.0 | 0.00 | 0.00 | 0.00 | 41 | 1012.3 |
| 20260830220850 | 94 | 145 | 0.0 | 0.0 | 0.00 | 0.00 | 0.00 | 41 | 1015.4 |
| 20260830220542 | 94 | 144 | 0.0 | 0.0 | 0.00 | 0.00 | 0.00 | 41 | 1012.4 |
| 20260830220329 | 94 | 120 | 0.0 | 0.0 | 0.00 | 0.00 | 0.00 | 41 | 1015.4 |
| 20260830220032 | 94 | 145 | 0.0 | 0.0 | 0.00 | 0.00 | 0.00 | 41 | 1012.4 |
| 20260830215825 | 95 | 144 | 0.0 | 0.0 | 0.00 | 0.00 | 0.00 | 40 | 1015.4 |
| 20260830215527 | 95 | 148 | 0.0 | 0.0 | 0.00 | 0.00 | 0.00 | 38 | 1012.4 |
| 20260830215323 | 95 | 172 | 0.0 | 0.0 | 0.00 | 0.00 | 0.00 | 38 | 1015.4 |
| 20260830215026 | 95 | 166 | 0.0 | 0.0 | 0.00 | 0.00 | 0.00 | 38 | 1012.3 |
| 20260830214821 | 95 | 171 | 0.0 | 0.0 | 0.00 | 0.00 | 0.00 | 39 | 1015.3 |
| 20260830214506 | 95 | 104 | 0.0 | 0.0 | 0.00 | 0.00 | 0.00 | 40 | 1012.5 |
| 20260830214319 | 95 | 127 | 0.0 | 0.0 | 0.00 | 0.00 | 0.00 | 40 | 1015.5 |
| 20260830214059 | 95 | 123 | 0.0 | 0.0 | 0.00 | 0.00 | 0.00 | 40 | 1012.5 |
| 20260830213818 | 95 | 106 | 0.0 | 0.0 | 0.00 | 0.00 | 0.00 | 40 | 1015.5 |
| 20260830213550 | 95 | 149 | 0.0 | 0.0 | 0.00 | 0.00 | 0.00 | 40 | 1012.5 |
| 20260830213335 | 95 | 103 | 0.0 | 0.0 | 0.00 | 0.00 | 0.00 | 40 | 1015.6 |
| 20260830213014 | 94 | 77 | 0.0 | 0.0 | 0.00 | 0.00 | 0.00 | 40 | 1012.6 |
| 20260830212850 | 95 | 199 | 0.0 | 0.0 | 0.00 | 0.00 | 0.00 | 40 | 1015.6 |
| 20260830212542 | 94 | 183 | 0.0 | 0.0 | 0.00 | 0.00 | 0.00 | 40 | 1012.8 |
| 20260830212326 | 95 | 142 | 0.0 | 0.0 | 0.00 | 0.00 | 0.00 | 40 | 1015.8 |
| 20260830212035 | 94 | 120 | 0.0 | 0.0 | 0.00 | 0.00 | 0.00 | 40 | 1012.7 |
| 20260830211823 | 94 | 141 | 0.0 | 0.0 | 0.00 | 0.00 | 0.00 | 41 | 1015.8 |
| 20260830211533 | 93 | 160 | 0.0 | 0.0 | 0.00 | 0.00 | 0.00 | 40 | 1012.9 |
| 20260830211320 | 93 | 166 | 0.0 | 0.0 | 0.00 | 0.00 | 0.00 | 40 | 1015.9 |
| 20260830211024 | 93 | 151 | 0.0 | 0.0 | 0.00 | 0.00 | 0.00 | 40 | 1013.0 |
| 20260830210819 | 93 | 151 | 0.0 | 0.0 | 0.00 | 0.00 | 0.00 | 39 | 1016.0 |
| 20260830210519 | 93 | 147 | 0.0 | 0.0 | 0.00 | 0.00 | 0.00 | 39 | 1013.1 |
| 20260830210316 | 94 | 128 | 0.0 | 0.0 | 0.00 | 0.00 | 0.00 | 39 | 1016.1 |
| 20260830205814 | 94 | 152 | 0.0 | 0.0 | 0.00 | 0.00 | 0.00 | 39 | 1016.1 |
| 20260830205551 | 94 | 163 | 0.0 | 0.0 | 0.00 | 0.00 | 0.00 | 39 | 1013.1 |
| 20260830205331 | 94 | 160 | 0.0 | 0.0 | 0.00 | 0.00 | 0.00 | 39 | 1016.3 |
| 20260830205043 | 94 | 196 | 0.0 | 0.0 | 0.00 | 0.00 | 0.00 | 38 | 1013.2 |
| 20260830204830 | 95 | 178 | 0.0 | 0.0 | 0.00 | 0.00 | 0.00 | 39 | 1016.3 |
| 20260830204533 | 94 | 155 | 0.0 | 0.0 | 0.00 | 0.00 | 0.00 | 39 | 1013.2 |
| 20260830204329 | 94 | 126 | 0.0 | 0.0 | 0.00 | 0.00 | 0.00 | 39 | 1016.3 |
| 20260830204018 | 94 | 214 | 0.0 | 0.0 | 0.00 | 0.00 | 0.00 | 39 | 1013.3 |
| 20260830203829 | 94 | 216 | 0.0 | 0.0 | 0.00 | 0.00 | 0.00 | 40 | 1016.4 |
| 20260830203507 | 94 | 78 | 0.0 | 0.0 | 0.00 | 0.00 | 0.00 | 39 | 1013.4 |
| 20260830203326 | 94 | 166 | 0.0 | 0.0 | 0.00 | 0.00 | 0.00 | 39 | 1016.4 |
| 20260830203100 | 94 | 201 | 0.0 | 0.0 | 0.00 | 0.00 | 0.00 | 40 | 1013.5 |
| 20260830202823 | 94 | 169 | 0.0 | 0.0 | 0.00 | 0.00 | 0.00 | 40 | 1016.5 |
| 20260830202554 | 94 | 193 | 0.0 | 0.0 | 0.00 | 0.00 | 0.00 | 40 | 1013.6 |
| 20260830202321 | 95 | 163 | 0.0 | 0.0 | 0.00 | 0.00 | 0.00 | 40 | 1016.6 |
| 20260830202043 | 94 | 162 | 0.0 | 0.0 | 0.00 | 0.00 | 0.00 | 41 | 1013.7 |
| 20260830201839 | 95 | 220 | 0.0 | 0.0 | 0.00 | 0.00 | 0.00 | 40 | 1016.6 |
| 20260830201532 | 94 | 232 | 0.0 | 0.0 | 0.00 | 0.00 | 0.00 | 40 | 1013.8 |
| 20260830201329 | 95 | 204 | 0.0 | 0.0 | 0.00 | 0.00 | 0.00 | 40 | 1016.7 |
| 20260830201023 | 94 | 160 | 0.0 | 0.0 | 0.00 | 0.00 | 0.00 | 41 | 1013.8 |
| 20260830200825 | 94 | 145 | 0.0 | 0.0 | 0.00 | 0.00 | 0.00 | 41 | 1016.8 |
| 20260830200505 | 93 | 149 | 0.0 | 0.0 | 0.00 | 0.00 | 0.00 | 40 | 1013.9 |
| 20260830200324 | 94 | 135 | 0.0 | 0.0 | 0.00 | 0.00 | 0.00 | 40 | 1016.8 |
| 20260830200103 | 93 | 199 | 0.0 | 0.0 | 0.00 | 0.00 | 0.00 | 41 | 1013.9 |
| 20260830195821 | 94 | 125 | 0.0 | 0.0 | 0.00 | 0.00 | 0.00 | 39 | 1017.0 |
| 20260830195550 | 93 | 158 | 0.0 | 0.0 | 0.00 | 0.00 | 0.00 | 39 | 1014.2 |
| 20260830195319 | 94 | 237 | 0.0 | 0.0 | 0.00 | 0.00 | 0.00 | 39 | 1017.2 |
| 20260830195042 | 93 | 191 | 0.0 | 0.0 | 0.00 | 0.00 | 0.00 | 38 | 1014.1 |
| 20260830194817 | 94 | 121 | 0.0 | 0.0 | 0.00 | 0.00 | 0.00 | 38 | 1017.1 |
| 20260830194537 | 93 | 160 | 0.0 | 0.0 | 0.00 | 0.00 | 0.00 | 37 | 1014.2 |
| 20260830194335 | 94 | 198 | 0.0 | 0.0 | 0.00 | 0.00 | 0.00 | 39 | 1017.2 |
| 20260830194058 | 93 | 175 | 0.0 | 0.0 | 0.00 | 0.00 | 0.00 | 39 | 1014.2 |
| 20260830193831 | 93 | 172 | 0.0 | 0.0 | 0.00 | 0.00 | 0.00 | 39 | 1017.3 |
| 20260830193551 | 93 | 187 | 0.0 | 0.0 | 0.00 | 0.00 | 0.00 | 39 | 1014.3 |
| 20260830193330 | 93 | 174 | 0.0 | 0.0 | 0.00 | 0.00 | 0.00 | 39 | 1017.3 |
| 20260830193056 | 93 | 195 | 0.0 | 0.0 | 0.00 | 0.00 | 0.00 | 40 | 1014.4 |
| 20260830192829 | 93 | 137 | 0.0 | 0.0 | 0.00 | 0.00 | 0.00 | 39 | 1017.4 |
| 20260830192529 | 92 | 156 | 0.0 | 0.0 | 0.00 | 0.00 | 0.00 | 40 | 1014.3 |
| 20260830192324 | 93 | 130 | 0.0 | 0.0 | 0.00 | 0.00 | 0.00 | 41 | 1017.5 |
| 20260830192053 | 92 | 104 | 0.0 | 0.0 | 0.00 | 0.00 | 0.00 | 41 | 1014.4 |
| 20260830191841 | 93 | 157 | 0.0 | 0.0 | 0.00 | 0.00 | 0.00 | 41 | 1017.4 |
| 20260830191526 | 92 | 134 | 0.0 | 0.0 | 0.00 | 0.00 | 0.00 | 42 | 1014.4 |
| 20260830191318 | 93 | 160 | 0.0 | 0.0 | 0.00 | 0.00 | 0.00 | 43 | 1017.5 |
| 20260830191014 | 92 | 195 | 0.0 | 0.0 | 0.00 | 0.00 | 0.00 | 43 | 1014.5 |
| 20260830190815 | 93 | 168 | 0.0 | 0.0 | 0.00 | 0.00 | 0.00 | 44 | 1017.5 |
| 20260830190600 | 92 | 188 | 0.0 | 0.0 | 0.00 | 0.00 | 0.00 | 43 | 1014.6 |
| 20260830190350 | 92 | 136 | 0.0 | 0.0 | 0.00 | 0.00 | 0.00 | 43 | 1017.7 |
| 20260830190031 | 92 | 82 | 0.0 | 0.0 | 0.00 | 0.00 | 0.00 | 44 | 1014.7 |
| 20260830185826 | 92 | 128 | 0.0 | 0.0 | 0.00 | 0.00 | 0.00 | 43 | 1017.8 |
| 20260830185512 | 92 | 197 | 0.0 | 0.0 | 0.00 | 0.00 | 0.00 | 43 | 1014.8 |
| 20260830185323 | 92 | 172 | 0.0 | 0.0 | 0.00 | 0.00 | 0.00 | 43 | 1017.8 |
| 20260830185004 | 92 | 201 | 0.0 | 0.0 | 0.00 | 0.00 | 0.00 | 43 | 1014.9 |
| 20260830184821 | 92 | 170 | 0.0 | 0.0 | 0.00 | 0.00 | 0.00 | 42 | 1018.0 |
| 20260830184558 | 92 | 162 | 0.0 | 0.0 | 0.00 | 0.00 | 0.00 | 42 | 1015.0 |
| 20260830184318 | 92 | 195 | 0.0 | 0.0 | 0.00 | 0.00 | 0.00 | 43 | 1018.0 |
| 20260830184047 | 91 | 224 | 0.0 | 0.0 | 0.00 | 0.00 | 0.00 | 43 | 1015.1 |
| 20260830183835 | 92 | 185 | 0.0 | 0.0 | 0.00 | 0.00 | 0.00 | 43 | 1018.1 |
| 20260830183509 | 92 | 158 | 0.0 | 0.0 | 0.00 | 0.00 | 0.00 | 44 | 1015.2 |
| 20260830183352 | 92 | 193 | 0.0 | 0.0 | 0.00 | 0.00 | 0.00 | 44 | 1018.2 |
| 20260830183039 | 91 | 212 | 0.0 | 0.0 | 0.00 | 0.00 | 0.00 | 44 | 1015.2 |
| 20260830182850 | 92 | 215 | 0.0 | 0.0 | 0.00 | 0.00 | 0.00 | 44 | 1018.3 |
| 20260830182602 | 91 | 144 | 0.0 | 0.0 | 0.00 | 0.00 | 0.00 | 45 | 1015.2 |
| 20260830182325 | 91 | 155 | 0.0 | 0.0 | 0.00 | 0.00 | 0.00 | 46 | 1018.3 |
| 20260830182054 | 91 | 157 | 0.0 | 0.0 | 0.00 | 0.00 | 0.00 | 45 | 1015.4 |
| 20260830181823 | 91 | 173 | 0.0 | 0.0 | 0.00 | 0.00 | 0.00 | 46 | 1018.4 |
| 20260830181545 | 91 | 146 | 0.0 | 0.0 | 0.00 | 0.00 | 0.00 | 47 | 1015.4 |
| 20260830181340 | 91 | 274 | 0.0 | 0.0 | 0.00 | 0.00 | 0.00 | 47 | 1018.5 |
| 20260830181041 | 90 | 176 | 0.0 | 0.0 | 0.00 | 0.00 | 0.00 | 47 | 1015.5 |
| 20260830180851 | 91 | 190 | 0.0 | 0.0 | 0.00 | 0.00 | 0.00 | 47 | 1018.6 |
| 20260830180505 | 90 | 225 | 0.0 | 0.0 | 0.00 | 0.00 | 0.00 | 46 | 1015.6 |
| 20260830180349 | 91 | 195 | 0.0 | 0.0 | 0.00 | 0.00 | 0.00 | 46 | 1018.7 |
| 20260830180046 | 90 | 208 | 0.0 | 0.0 | 0.00 | 0.00 | 0.00 | 46 | 1015.7 |
| 20260830175826 | 90 | 153 | 0.0 | 0.0 | 0.00 | 0.00 | 0.00 | 47 | 1018.8 |
| 20260830175537 | 90 | 25 | 0.0 | 0.0 | 0.00 | 0.00 | 0.00 | 49 | 1015.7 |
| 20260830175325 | 90 | 160 | 0.0 | 0.0 | 0.00 | 0.00 | 0.00 | 48 | 1018.8 |
| 20260830175031 | 90 | 140 | 0.0 | 0.0 | 0.00 | 0.00 | 0.00 | 49 | 1016.0 |
| 20260830174823 | 90 | 202 | 0.0 | 0.0 | 0.00 | 0.00 | 0.00 | 48 | 1019.0 |
| 20260830174613 | 89 | 162 | 0.0 | 0.0 | 0.00 | 0.00 | 0.00 | 48 | 1016.0 |
| 20260830174321 | 90 | 155 | 0.0 | 0.0 | 0.00 | 0.00 | 0.00 | 48 | 1019.0 |
| 20260830174049 | 89 | 215 | 0.0 | 0.0 | 0.00 | 0.00 | 0.00 | 50 | 1016.1 |
| 20260830173818 | 90 | 209 | 0.0 | 0.0 | 0.00 | 0.00 | 0.00 | 51 | 1019.2 |
| 20260830173544 | 89 | 185 | 0.0 | 0.0 | 0.00 | 0.00 | 0.00 | 51 | 1016.1 |
| 20260830173337 | 89 | 157 | 0.0 | 0.0 | 0.00 | 0.00 | 0.00 | 51 | 1019.2 |
| 20260830173009 | 89 | 160 | 0.0 | 7.0 | 0.00 | 0.00 | 0.00 | 51 | 1016.3 |
| 20260830172815 | 90 | 157 | 0.0 | 7.0 | 0.00 | 0.00 | 0.00 | 50 | 1019.3 |